| time (UTC) | temp F | wind direction | speed MPH | gust MPH | rain 1hr in | rain 24hr in | rain mn in | humidity % | barometer mb |
| 20260902121544 | 77 | 137 | 3.0 | 7.0 | 0.00 | 0.00 | 0.00 | 74 | 1021.2 |
| 20260902121045 | 78 | 204 | 3.0 | 7.0 | 0.00 | 0.00 | 0.00 | 74 | 1021.2 |
| 20260902120544 | 77 | 112 | 3.0 | 7.0 | 0.00 | 0.00 | 0.00 | 74 | 1021.2 |
| 20260902120057 | 77 | 150 | 2.0 | 6.0 | 0.00 | 0.00 | 0.00 | 74 | 1021.2 |
| 20260902115545 | 77 | 180 | 2.0 | 5.0 | 0.00 | 0.00 | 0.00 | 74 | 1021.3 |
| 20260902115043 | 77 | 167 | 2.0 | 5.0 | 0.00 | 0.00 | 0.00 | 74 | 1021.3 |
| 20260902114537 | 77 | 181 | 3.0 | 6.0 | 0.00 | 0.00 | 0.00 | 75 | 1021.3 |
| 20260902114036 | 76 | 119 | 3.0 | 9.0 | 0.00 | 0.00 | 0.00 | 76 | 1021.3 |
| 20260902113622 | 76 | 90 | 4.0 | 10.0 | 0.00 | 0.00 | 0.00 | 77 | 1021.4 |
| 20260902113603 | 76 | 61 | 4.0 | 9.0 | 0.00 | 0.00 | 0.00 | 77 | 1021.3 |
| 20260902112537 | 76 | 158 | 3.0 | 10.0 | 0.00 | 0.00 | 0.00 | 77 | 1021.4 |
| 20260902112037 | 76 | 93 | 3.0 | 8.0 | 0.00 | 0.00 | 0.00 | 77 | 1021.3 |
| 20260902111534 | 76 | 135 | 4.0 | 9.0 | 0.00 | 0.00 | 0.00 | 77 | 1021.4 |
| 20260902111034 | 76 | 97 | 4.0 | 10.0 | 0.00 | 0.00 | 0.00 | 76 | 1021.4 |
| 20260902110535 | 77 | 151 | 3.0 | 10.0 | 0.00 | 0.00 | 0.00 | 75 | 1021.4 |
| 20260902110036 | 76 | 129 | 3.0 | 10.0 | 0.00 | 0.00 | 0.00 | 77 | 1021.5 |
| 20260902105535 | 76 | 127 | 5.0 | 10.0 | 0.00 | 0.00 | 0.00 | 76 | 1021.4 |
| 20260902105035 | 76 | 152 | 5.0 | 12.0 | 0.00 | 0.00 | 0.00 | 76 | 1021.5 |
| 20260902104535 | 76 | 104 | 5.0 | 12.0 | 0.00 | 0.00 | 0.00 | 76 | 1021.6 |
| 20260902104036 | 77 | 179 | 5.0 | 10.0 | 0.00 | 0.00 | 0.00 | 76 | 1021.6 |
| 20260902103535 | 76 | 216 | 4.0 | 9.0 | 0.00 | 0.00 | 0.00 | 76 | 1021.7 |
| 20260902103315 | 77 | 123 | 3.0 | 9.0 | 0.00 | 0.00 | 0.00 | 76 | 1021.7 |
| 20260902102838 | 77 | 135 | 3.0 | 9.0 | 0.00 | 0.00 | 0.00 | 75 | 1021.7 |
| 20260902102035 | 76 | 114 | 3.0 | 6.0 | 0.00 | 0.00 | 0.00 | 76 | 1021.7 |
| 20260902101819 | 76 | 114 | 3.0 | 9.0 | 0.00 | 0.00 | 0.00 | 76 | 1021.8 |
| 20260902101035 | 76 | 101 | 4.0 | 9.0 | 0.00 | 0.00 | 0.00 | 76 | 1021.8 |
| 20260902100535 | 76 | 115 | 3.0 | 8.0 | 0.00 | 0.00 | 0.00 | 76 | 1021.8 |
| 20260902100036 | 76 | 90 | 3.0 | 8.0 | 0.00 | 0.00 | 0.00 | 75 | 1021.8 |
| 20260902095535 | 77 | 162 | 3.0 | 6.0 | 0.00 | 0.00 | 0.00 | 75 | 1021.7 |
| 20260902095041 | 77 | 172 | 3.0 | 7.0 | 0.00 | 0.00 | 0.00 | 75 | 1021.7 |
| 20260902094533 | 78 | 106 | 2.0 | 7.0 | 0.00 | 0.00 | 0.00 | 73 | 1021.7 |
| 20260902094033 | 78 | 247 | 2.0 | 7.0 | 0.00 | 0.00 | 0.00 | 73 | 1021.7 |
| 20260902093534 | 78 | 125 | 2.0 | 7.0 | 0.00 | 0.00 | 0.00 | 73 | 1021.7 |
| 20260902093032 | 78 | 174 | 2.0 | 6.0 | 0.00 | 0.00 | 0.00 | 72 | 1021.7 |
| 20260902092526 | 78 | 199 | 2.0 | 7.0 | 0.00 | 0.00 | 0.00 | 73 | 1021.7 |
| 20260902092026 | 78 | 135 | 2.0 | 7.0 | 0.00 | 0.00 | 0.00 | 71 | 1021.7 |
| 20260902091526 | 78 | 139 | 1.0 | 4.0 | 0.00 | 0.00 | 0.00 | 71 | 1021.7 |
| 20260902091025 | 78 | 133 | 1.0 | 4.0 | 0.00 | 0.00 | 0.00 | 71 | 1021.7 |
| 20260902090525 | 78 | 185 | 2.0 | 4.0 | 0.00 | 0.00 | 0.00 | 71 | 1021.7 |
| 20260902090025 | 78 | 120 | 2.0 | 6.0 | 0.00 | 0.00 | 0.00 | 71 | 1021.7 |
| 20260902085521 | 78 | 93 | 2.0 | 6.0 | 0.00 | 0.00 | 0.00 | 71 | 1021.7 |
| 20260902085019 | 78 | 152 | 2.0 | 6.0 | 0.00 | 0.00 | 0.00 | 71 | 1021.7 |
| 20260902084802 | 78 | 132 | 2.0 | 6.0 | 0.00 | 0.00 | 0.00 | 71 | 1021.7 |
| 20260902084019 | 78 | 122 | 2.0 | 6.0 | 0.00 | 0.00 | 0.00 | 72 | 1021.7 |
| 20260902083819 | 77 | 189 | 2.0 | 6.0 | 0.00 | 0.00 | 0.00 | 71 | 1021.7 |
| 20260902083048 | 77 | 156 | 2.0 | 4.0 | 0.00 | 0.00 | 0.00 | 71 | 1021.5 |
| 20260902083037 | 77 | 161 | 2.0 | 5.0 | 0.00 | 0.00 | 0.00 | 71 | 1021.6 |
| 20260902082012 | 76 | 102 | 2.0 | 5.0 | 0.00 | 0.00 | 0.00 | 72 | 1021.5 |
| 20260902081810 | 76 | 172 | 2.0 | 5.0 | 0.00 | 0.00 | 0.00 | 71 | 1021.4 |
| 20260902081012 | 76 | 152 | 2.0 | 5.0 | 0.00 | 0.00 | 0.00 | 71 | 1021.4 |
| 20260902080511 | 76 | 112 | 2.0 | 5.0 | 0.00 | 0.00 | 0.00 | 71 | 1021.3 |
| 20260902080018 | 76 | 152 | 2.0 | 5.0 | 0.00 | 0.00 | 0.00 | 71 | 1021.3 |
| 20260902075759 | 76 | 143 | 2.0 | 3.0 | 0.00 | 0.00 | 0.00 | 71 | 1021.3 |
| 20260902075012 | 76 | 155 | 2.0 | 3.0 | 0.00 | 0.00 | 0.00 | 71 | 1021.2 |
| 20260902074511 | 75 | 155 | 2.0 | 4.0 | 0.00 | 0.00 | 0.00 | 71 | 1021.1 |
| 20260902074018 | 75 | 176 | 2.0 | 4.0 | 0.00 | 0.00 | 0.00 | 70 | 1021.1 |
| 20260902073514 | 75 | 128 | 2.0 | 5.0 | 0.00 | 0.00 | 0.00 | 71 | 1021.1 |
| 20260902073012 | 75 | 112 | 2.0 | 5.0 | 0.00 | 0.00 | 0.00 | 70 | 1021.1 |
| 20260902072511 | 75 | 147 | 2.0 | 4.0 | 0.00 | 0.00 | 0.00 | 70 | 1021.0 |
| 20260902072012 | 74 | 118 | 1.0 | 3.0 | 0.00 | 0.00 | 0.00 | 70 | 1021.0 |
| 20260902071512 | 74 | 154 | 1.0 | 3.0 | 0.00 | 0.00 | 0.00 | 70 | 1020.9 |
| 20260902071017 | 74 | 154 | 1.0 | 3.0 | 0.00 | 0.00 | 0.00 | 70 | 1021.0 |
| 20260902070514 | 74 | 154 | 1.0 | 3.0 | 0.00 | 0.00 | 0.00 | 71 | 1021.0 |
| 20260902070316 | 74 | 154 | 1.0 | 3.0 | 0.00 | 0.00 | 0.00 | 71 | 1021.0 |
| 20260902065505 | 74 | 154 | 1.0 | 3.0 | 0.00 | 0.00 | 0.00 | 71 | 1021.0 |
| 20260902065005 | 74 | 154 | 1.0 | 3.0 | 0.00 | 0.00 | 0.00 | 71 | 1021.0 |
| 20260902064747 | 74 | 154 | 1.0 | 3.0 | 0.00 | 0.00 | 0.00 | 71 | 1021.1 |
| 20260902064007 | 74 | 154 | 1.0 | 3.0 | 0.00 | 0.00 | 0.00 | 70 | 1021.0 |
| 20260902063506 | 74 | 48 | 1.0 | 3.0 | 0.00 | 0.00 | 0.00 | 70 | 1021.1 |
| 20260902063009 | 74 | 48 | 1.0 | 2.0 | 0.00 | 0.00 | 0.00 | 70 | 1021.1 |
| 20260902062743 | 74 | 47 | 1.0 | 2.0 | 0.00 | 0.00 | 0.00 | 69 | 1021.0 |
| 20260902062005 | 73 | 46 | 1.0 | 2.0 | 0.00 | 0.00 | 0.00 | 69 | 1021.0 |
| 20260902061503 | 73 | 46 | 1.0 | 2.0 | 0.00 | 0.00 | 0.00 | 69 | 1020.9 |
| 20260902061005 | 73 | 46 | 1.0 | 2.0 | 0.00 | 0.00 | 0.00 | 69 | 1020.9 |
| 20260902060504 | 72 | 45 | 0.0 | 2.0 | 0.00 | 0.00 | 0.00 | 69 | 1021.0 |
| 20260902060003 | 72 | 45 | 1.0 | 2.0 | 0.00 | 0.00 | 0.00 | 69 | 1021.0 |
| 20260902055504 | 72 | 354 | 1.0 | 2.0 | 0.00 | 0.00 | 0.00 | 69 | 1021.0 |
| 20260902055003 | 71 | 354 | 0.0 | 1.0 | 0.00 | 0.00 | 0.00 | 70 | 1021.0 |
| 20260902054508 | 71 | 354 | 0.0 | 1.0 | 0.00 | 0.00 | 0.00 | 70 | 1020.9 |
| 20260902054005 | 71 | 354 | 0.0 | 1.0 | 0.00 | 0.00 | 0.00 | 72 | 1021.0 |
| 20260902053504 | 70 | 354 | 0.0 | 1.0 | 0.00 | 0.00 | 0.00 | 72 | 1020.9 |
| 20260902053006 | 70 | 354 | 0.0 | 1.0 | 0.00 | 0.00 | 0.00 | 72 | 1020.9 |
| 20260902052510 | 70 | 354 | 0.0 | 1.0 | 0.00 | 0.00 | 0.00 | 73 | 1020.7 |
| 20260902052003 | 69 | 354 | 0.0 | 0.0 | 0.00 | 0.00 | 0.00 | 73 | 1020.6 |
| 20260902051504 | 69 | 354 | 0.0 | 0.0 | 0.00 | 0.00 | 0.00 | 72 | 1020.5 |
| 20260902051004 | 69 | 354 | 0.0 | 1.0 | 0.00 | 0.00 | 0.00 | 72 | 1020.5 |
| 20260902050552 | 69 | 354 | 1.0 | 2.0 | 0.00 | 0.00 | 0.00 | 72 | 1020.5 |
| 20260902050528 | 69 | 354 | 1.0 | 2.0 | 0.00 | 0.00 | 0.00 | 72 | 1020.5 |
| 20260902045504 | 69 | 354 | 0.0 | 2.0 | 0.00 | 0.00 | 0.00 | 72 | 1020.5 |
| 20260902045011 | 69 | 354 | 1.0 | 2.0 | 0.00 | 0.00 | 0.00 | 72 | 1020.5 |
| 20260902044505 | 69 | 354 | 1.0 | 3.0 | 0.00 | 0.00 | 0.00 | 72 | 1020.6 |
| 20260902044008 | 69 | 354 | 1.0 | 3.0 | 0.00 | 0.00 | 0.00 | 72 | 1020.6 |
| 20260902043507 | 69 | 354 | 1.0 | 2.0 | 0.00 | 0.00 | 0.00 | 72 | 1020.5 |
| 20260902043249 | 69 | 354 | 1.0 | 2.0 | 0.00 | 0.00 | 0.00 | 72 | 1020.5 |
| 20260902042502 | 69 | 354 | 1.0 | 2.0 | 0.00 | 0.00 | 0.00 | 72 | 1020.5 |
| 20260902042002 | 69 | 354 | 1.0 | 2.0 | 0.00 | 0.00 | 0.00 | 72 | 1020.5 |
| 20260902041502 | 69 | 354 | 1.0 | 2.0 | 0.00 | 0.00 | 0.00 | 73 | 1020.5 |
| 20260902041002 | 69 | 354 | 1.0 | 2.0 | 0.00 | 0.00 | 0.00 | 73 | 1020.4 |
| 20260902040501 | 69 | 354 | 1.0 | 2.0 | 0.00 | 0.00 | 0.00 | 73 | 1020.4 |
| 20260902035959 | 69 | 354 | 0.0 | 1.0 | 0.00 | 0.00 | 0.00 | 73 | 1020.5 |
| 20260902035500 | 69 | 354 | 1.0 | 2.0 | 0.00 | 0.00 | 0.00 | 73 | 1020.5 |
| 20260902035000 | 69 | 354 | 1.0 | 2.0 | 0.00 | 0.00 | 0.00 | 73 | 1020.5 |
| 20260902034756 | 69 | 354 | 1.0 | 2.0 | 0.00 | 0.00 | 0.00 | 73 | 1020.5 |
| 20260902034001 | 69 | 354 | 1.0 | 2.0 | 0.00 | 0.00 | 0.00 | 73 | 1020.5 |
| 20260902033755 | 69 | 354 | 0.0 | 2.0 | 0.00 | 0.00 | 0.00 | 72 | 1020.5 |
| 20260902032958 | 69 | 354 | 0.0 | 2.0 | 0.00 | 0.00 | 0.00 | 72 | 1020.6 |
| 20260902032453 | 69 | 354 | 0.0 | 2.0 | 0.00 | 0.00 | 0.00 | 73 | 1020.5 |
| 20260902031949 | 69 | 354 | 1.0 | 3.0 | 0.00 | 0.00 | 0.00 | 73 | 1020.6 |
| 20260902031728 | 69 | 354 | 2.0 | 3.0 | 0.00 | 0.00 | 0.00 | 73 | 1020.5 |
| 20260902030944 | 69 | 350 | 2.0 | 2.0 | 0.00 | 0.00 | 0.00 | 73 | 1020.5 |
| 20260902030444 | 69 | 350 | 1.0 | 2.0 | 0.00 | 0.00 | 0.00 | 73 | 1020.6 |
| 20260902025941 | 69 | 350 | 1.0 | 2.0 | 0.00 | 0.00 | 0.00 | 73 | 1020.6 |
| 20260902025442 | 69 | 350 | 2.0 | 2.0 | 0.00 | 0.00 | 0.00 | 73 | 1020.6 |
| 20260902024940 | 69 | 350 | 2.0 | 2.0 | 0.00 | 0.00 | 0.00 | 73 | 1020.6 |
| 20260902024438 | 69 | 350 | 2.0 | 2.0 | 0.00 | 0.00 | 0.00 | 73 | 1020.6 |
| 20260902023939 | 69 | 350 | 1.0 | 2.0 | 0.00 | 0.00 | 0.00 | 73 | 1020.6 |
| 20260902023438 | 69 | 350 | 1.0 | 2.0 | 0.00 | 0.00 | 0.00 | 73 | 1020.5 |
| 20260902022938 | 69 | 350 | 1.0 | 2.0 | 0.00 | 0.00 | 0.00 | 73 | 1020.5 |
| 20260902022434 | 69 | 350 | 1.0 | 2.0 | 0.00 | 0.00 | 0.00 | 73 | 1020.5 |
| 20260902021934 | 69 | 350 | 1.0 | 2.0 | 0.00 | 0.00 | 0.00 | 73 | 1020.5 |
| 20260902021433 | 69 | 350 | 1.0 | 2.0 | 0.00 | 0.00 | 0.00 | 73 | 1020.6 |
| 20260902021254 | 69 | 350 | 1.0 | 2.0 | 0.00 | 0.00 | 0.00 | 73 | 1020.5 |
| 20260902020744 | 69 | 350 | 1.0 | 2.0 | 0.00 | 0.00 | 0.00 | 73 | 1020.6 |
| 20260902015934 | 69 | 350 | 1.0 | 2.0 | 0.00 | 0.00 | 0.00 | 73 | 1020.5 |
| 20260902015718 | 69 | 350 | 1.0 | 2.0 | 0.00 | 0.00 | 0.00 | 73 | 1020.7 |
| 20260902014932 | 69 | 350 | 1.0 | 1.0 | 0.00 | 0.00 | 0.00 | 73 | 1020.7 |
| 20260902014433 | 70 | 350 | 1.0 | 2.0 | 0.00 | 0.00 | 0.00 | 73 | 1020.6 |
| 20260902013934 | 70 | 350 | 1.0 | 2.0 | 0.00 | 0.00 | 0.00 | 73 | 1020.6 |
| 20260902013434 | 70 | 350 | 1.0 | 2.0 | 0.00 | 0.00 | 0.00 | 73 | 1020.6 |
| 20260902012933 | 70 | 350 | 1.0 | 2.0 | 0.00 | 0.00 | 0.00 | 74 | 1020.6 |
| 20260902012434 | 70 | 350 | 1.0 | 2.0 | 0.00 | 0.00 | 0.00 | 74 | 1020.6 |
| 20260902011934 | 70 | 350 | 1.0 | 3.0 | 0.00 | 0.00 | 0.00 | 74 | 1020.5 |
| 20260902011434 | 69 | 350 | 1.0 | 3.0 | 0.00 | 0.00 | 0.00 | 74 | 1020.5 |
| 20260902010932 | 70 | 350 | 0.0 | 1.0 | 0.00 | 0.00 | 0.00 | 74 | 1020.4 |
| 20260902010433 | 70 | 350 | 0.0 | 2.0 | 0.00 | 0.00 | 0.00 | 74 | 1020.4 |
| 20260902005932 | 70 | 350 | 0.0 | 2.0 | 0.00 | 0.00 | 0.00 | 74 | 1020.4 |
| 20260902005726 | 70 | 350 | 1.0 | 2.0 | 0.00 | 0.00 | 0.00 | 74 | 1020.5 |
| 20260902004932 | 70 | 350 | 1.0 | 2.0 | 0.00 | 0.00 | 0.00 | 74 | 1020.5 |
| 20260902004433 | 70 | 350 | 1.0 | 2.0 | 0.00 | 0.00 | 0.00 | 74 | 1020.6 |
| 20260902003932 | 69 | 350 | 1.0 | 2.0 | 0.00 | 0.00 | 0.00 | 74 | 1020.5 |
| 20260902003437 | 69 | 350 | 1.0 | 3.0 | 0.00 | 0.00 | 0.00 | 74 | 1020.6 |
| 20260902002934 | 69 | 350 | 2.0 | 3.0 | 0.00 | 0.00 | 0.00 | 74 | 1020.6 |
| 20260902002434 | 70 | 350 | 2.0 | 3.0 | 0.00 | 0.00 | 0.00 | 74 | 1020.6 |
| 20260902001934 | 70 | 350 | 2.0 | 3.0 | 0.00 | 0.00 | 0.00 | 74 | 1020.7 |
| 20260902001433 | 70 | 350 | 1.0 | 2.0 | 0.00 | 0.00 | 0.00 | 74 | 1020.7 |
| 20260902000932 | 70 | 350 | 1.0 | 3.0 | 0.00 | 0.00 | 0.00 | 74 | 1020.7 |
| 20260902000740 | 70 | 350 | 1.0 | 3.0 | 0.00 | 0.00 | 0.00 | 74 | 1020.7 |
| 20260902000219 | 70 | 354 | 1.0 | 3.0 | 0.00 | 0.00 | 0.00 | 75 | 1020.8 |
| 20260901235433 | 70 | 354 | 1.0 | 3.0 | 0.00 | 0.00 | 0.00 | 75 | 1020.8 |
| 20260901234932 | 70 | 297 | 1.0 | 2.0 | 0.00 | 0.00 | 0.00 | 74 | 1020.8 |
| 20260901234433 | 70 | 297 | 1.0 | 2.0 | 0.00 | 0.00 | 0.00 | 74 | 1020.8 |
| 20260901233933 | 70 | 297 | 1.0 | 2.0 | 0.00 | 0.00 | 0.00 | 74 | 1020.8 |
| 20260901233433 | 70 | 297 | 1.0 | 2.0 | 0.00 | 0.00 | 0.00 | 74 | 1020.8 |
| 20260901232938 | 70 | 297 | 1.0 | 2.0 | 0.00 | 0.00 | 0.00 | 74 | 1020.7 |
| 20260901232437 | 70 | 297 | 1.0 | 2.0 | 0.00 | 0.00 | 0.00 | 74 | 1020.8 |
| 20260901231932 | 70 | 297 | 1.0 | 2.0 | 0.00 | 0.00 | 0.00 | 75 | 1020.8 |
| 20260901231715 | 70 | 297 | 1.0 | 2.0 | 0.00 | 0.00 | 0.00 | 74 | 1020.8 |
| 20260901231036 | 70 | 297 | 1.0 | 2.0 | 0.00 | 0.00 | 0.00 | 74 | 1020.9 |
| 20260901231014 | 70 | 297 | 1.0 | 2.0 | 0.00 | 0.00 | 0.00 | 74 | 1020.9 |
| 20260901225933 | 71 | 297 | 1.0 | 2.0 | 0.00 | 0.00 | 0.00 | 74 | 1020.9 |
| 20260901225721 | 71 | 285 | 1.0 | 2.0 | 0.00 | 0.00 | 0.00 | 74 | 1020.9 |
| 20260901224932 | 71 | 285 | 1.0 | 2.0 | 0.00 | 0.00 | 0.00 | 74 | 1021.0 |
| 20260901224432 | 71 | 285 | 1.0 | 2.0 | 0.00 | 0.00 | 0.00 | 74 | 1021.0 |
| 20260901223933 | 71 | 285 | 1.0 | 1.0 | 0.00 | 0.00 | 0.00 | 74 | 1021.1 |
| 20260901223435 | 71 | 285 | 1.0 | 2.0 | 0.00 | 0.00 | 0.00 | 74 | 1021.0 |
| 20260901222934 | 71 | 285 | 1.0 | 2.0 | 0.00 | 0.00 | 0.00 | 74 | 1021.0 |
| 20260901222437 | 71 | 285 | 0.0 | 2.0 | 0.00 | 0.00 | 0.00 | 74 | 1020.9 |
| 20260901221937 | 71 | 285 | 0.0 | 2.0 | 0.00 | 0.00 | 0.00 | 74 | 1020.9 |
| 20260901221437 | 71 | 285 | 0.0 | 1.0 | 0.00 | 0.00 | 0.00 | 74 | 1020.8 |
| 20260901220935 | 71 | 285 | 1.0 | 2.0 | 0.00 | 0.00 | 0.00 | 74 | 1020.8 |
| 20260901220434 | 71 | 285 | 1.0 | 2.0 | 0.00 | 0.00 | 0.00 | 74 | 1020.9 |
| 20260901215934 | 71 | 285 | 1.0 | 2.0 | 0.00 | 0.00 | 0.00 | 74 | 1020.8 |
| 20260901215433 | 71 | 285 | 1.0 | 2.0 | 0.00 | 0.00 | 0.00 | 74 | 1020.8 |
| 20260901215214 | 71 | 285 | 1.0 | 2.0 | 0.00 | 0.00 | 0.00 | 74 | 1020.7 |
| 20260901214433 | 71 | 285 | 1.0 | 2.0 | 0.00 | 0.00 | 0.00 | 74 | 1020.7 |
| 20260901213936 | 71 | 285 | 1.0 | 2.0 | 0.00 | 0.00 | 0.00 | 73 | 1020.8 |
| 20260901213432 | 71 | 285 | 1.0 | 1.0 | 0.00 | 0.00 | 0.00 | 73 | 1020.9 |
| 20260901212932 | 71 | 285 | 1.0 | 2.0 | 0.00 | 0.00 | 0.00 | 73 | 1020.9 |
| 20260901212436 | 71 | 285 | 1.0 | 2.0 | 0.00 | 0.00 | 0.00 | 73 | 1020.8 |
| 20260901211934 | 72 | 285 | 1.0 | 2.0 | 0.00 | 0.00 | 0.00 | 73 | 1020.8 |
| 20260901211433 | 72 | 285 | 1.0 | 2.0 | 0.00 | 0.00 | 0.00 | 73 | 1020.8 |
| 20260901210934 | 72 | 285 | 1.0 | 2.0 | 0.00 | 0.00 | 0.00 | 73 | 1020.7 |
| 20260901210434 | 72 | 285 | 1.0 | 2.0 | 0.00 | 0.00 | 0.00 | 73 | 1020.7 |
| 20260901205932 | 72 | 285 | 1.0 | 2.0 | 0.00 | 0.00 | 0.00 | 73 | 1020.8 |
| 20260901205433 | 72 | 285 | 1.0 | 2.0 | 0.00 | 0.00 | 0.00 | 73 | 1020.9 |
| 20260901204933 | 72 | 285 | 1.0 | 3.0 | 0.00 | 0.00 | 0.00 | 73 | 1020.9 |
| 20260901204432 | 73 | 285 | 1.0 | 3.0 | 0.00 | 0.00 | 0.00 | 73 | 1020.9 |
| 20260901204217 | 73 | 285 | 0.0 | 2.0 | 0.00 | 0.00 | 0.00 | 73 | 1021.0 |
| 20260901203722 | 73 | 285 | 0.0 | 2.0 | 0.00 | 0.00 | 0.00 | 73 | 1020.9 |
| 20260901203213 | 73 | 285 | 0.0 | 1.0 | 0.00 | 0.00 | 0.00 | 73 | 1021.0 |
| 20260901202433 | 73 | 285 | 0.0 | 2.0 | 0.00 | 0.00 | 0.00 | 73 | 1021.0 |
| 20260901201934 | 73 | 285 | 0.0 | 2.0 | 0.00 | 0.00 | 0.00 | 73 | 1021.0 |
| 20260901201435 | 73 | 285 | 0.0 | 1.0 | 0.00 | 0.00 | 0.00 | 73 | 1021.0 |
| 20260901200935 | 72 | 285 | 0.0 | 2.0 | 0.00 | 0.00 | 0.00 | 73 | 1020.9 |
| 20260901200721 | 72 | 285 | 0.0 | 2.0 | 0.00 | 0.00 | 0.00 | 73 | 1021.0 |
| 20260901195931 | 72 | 285 | 0.0 | 2.0 | 0.00 | 0.00 | 0.00 | 73 | 1020.8 |
| 20260901195429 | 72 | 285 | 1.0 | 2.0 | 0.00 | 0.00 | 0.00 | 73 | 1020.8 |
| 20260901194929 | 72 | 285 | 1.0 | 2.0 | 0.00 | 0.00 | 0.00 | 73 | 1020.8 |
| 20260901194426 | 71 | 285 | 1.0 | 3.0 | 0.00 | 0.00 | 0.00 | 73 | 1020.7 |
| 20260901194211 | 71 | 285 | 2.0 | 3.0 | 0.00 | 0.00 | 0.00 | 73 | 1020.6 |
| 20260901193424 | 71 | 285 | 2.0 | 3.0 | 0.00 | 0.00 | 0.00 | 73 | 1020.6 |
| 20260901193158 | 71 | 285 | 2.0 | 3.0 | 0.00 | 0.00 | 0.00 | 73 | 1020.6 |
| 20260901192416 | 72 | 285 | 2.0 | 3.0 | 0.00 | 0.00 | 0.00 | 73 | 1020.5 |
| 20260901191911 | 72 | 285 | 1.0 | 3.0 | 0.00 | 0.00 | 0.00 | 73 | 1020.5 |
| 20260901191650 | 72 | 285 | 1.0 | 3.0 | 0.00 | 0.00 | 0.00 | 73 | 1020.4 |
| 20260901190907 | 72 | 285 | 1.0 | 3.0 | 0.00 | 0.00 | 0.00 | 73 | 1020.3 |
| 20260901190405 | 72 | 285 | 2.0 | 3.0 | 0.00 | 0.00 | 0.00 | 73 | 1020.2 |
| 20260901185905 | 72 | 285 | 2.0 | 3.0 | 0.00 | 0.00 | 0.00 | 74 | 1020.1 |
| 20260901185411 | 72 | 285 | 1.0 | 3.0 | 0.00 | 0.00 | 0.00 | 73 | 1020.0 |
| 20260901185200 | 72 | 285 | 1.0 | 3.0 | 0.00 | 0.00 | 0.00 | 74 | 1019.9 |
| 20260901184410 | 72 | 284 | 1.0 | 3.0 | 0.00 | 0.00 | 0.00 | 74 | 1019.9 |
| 20260901183910 | 72 | 284 | 1.0 | 2.0 | 0.00 | 0.00 | 0.00 | 74 | 1019.9 |
| 20260901183654 | 73 | 284 | 1.0 | 2.0 | 0.00 | 0.00 | 0.00 | 74 | 1019.9 |
| 20260901182906 | 73 | 284 | 1.0 | 2.0 | 0.00 | 0.00 | 0.00 | 74 | 1019.9 |
| 20260901182404 | 73 | 284 | 1.0 | 3.0 | 0.00 | 0.00 | 0.00 | 74 | 1019.9 |
| 20260901181904 | 73 | 284 | 1.0 | 3.0 | 0.00 | 0.00 | 0.00 | 74 | 1019.8 |
| 20260901181406 | 73 | 284 | 2.0 | 3.0 | 0.00 | 0.00 | 0.00 | 75 | 1019.8 |
| 20260901180905 | 73 | 278 | 2.0 | 3.0 | 0.00 | 0.00 | 0.00 | 75 | 1019.8 |
| 20260901180650 | 73 | 278 | 2.0 | 3.0 | 0.00 | 0.00 | 0.00 | 75 | 1019.7 |
| 20260901175904 | 73 | 278 | 2.0 | 3.0 | 0.00 | 0.00 | 0.00 | 75 | 1019.7 |
| 20260901175403 | 73 | 278 | 2.0 | 3.0 | 0.00 | 0.00 | 0.00 | 75 | 1019.6 |
| 20260901174904 | 74 | 278 | 2.0 | 3.0 | 0.00 | 0.00 | 0.00 | 75 | 1019.6 |
| 20260901174405 | 74 | 278 | 1.0 | 3.0 | 0.00 | 0.00 | 0.00 | 75 | 1019.6 |
| 20260901173905 | 74 | 287 | 1.0 | 3.0 | 0.00 | 0.00 | 0.00 | 75 | 1019.5 |
| 20260901173409 | 74 | 287 | 1.0 | 2.0 | 0.00 | 0.00 | 0.00 | 76 | 1019.5 |
| 20260901172904 | 74 | 287 | 1.0 | 2.0 | 0.00 | 0.00 | 0.00 | 76 | 1019.5 |
| 20260901172406 | 74 | 287 | 2.0 | 4.0 | 0.00 | 0.00 | 0.00 | 77 | 1019.5 |
| 20260901171905 | 74 | 287 | 1.0 | 4.0 | 0.00 | 0.00 | 0.00 | 77 | 1019.5 |
| 20260901171409 | 74 | 238 | 1.0 | 3.0 | 0.00 | 0.00 | 0.00 | 77 | 1019.5 |
| 20260901171154 | 74 | 41 | 1.0 | 3.0 | 0.00 | 0.00 | 0.00 | 77 | 1019.5 |
| 20260901170402 | 74 | 41 | 1.0 | 4.0 | 0.00 | 0.00 | 0.00 | 77 | 1019.5 |
| 20260901165902 | 74 | 261 | 2.0 | 7.0 | 0.00 | 0.00 | 0.00 | 77 | 1019.5 |
| 20260901165355 | 75 | 260 | 1.0 | 7.0 | 0.00 | 0.00 | 0.00 | 77 | 1019.5 |
| 20260901164855 | 75 | 245 | 0.0 | 2.0 | 0.00 | 0.00 | 0.00 | 77 | 1019.5 |
| 20260901164352 | 75 | 231 | 0.0 | 2.0 | 0.00 | 0.00 | 0.00 | 77 | 1019.5 |
| 20260901163852 | 75 | 231 | 0.0 | 2.0 | 0.00 | 0.00 | 0.00 | 77 | 1019.6 |
| 20260901163353 | 75 | 231 | 1.0 | 2.0 | 0.00 | 0.00 | 0.00 | 77 | 1019.5 |
| 20260901162851 | 75 | 231 | 1.0 | 3.0 | 0.00 | 0.00 | 0.00 | 78 | 1019.6 |
| 20260901162351 | 76 | 231 | 1.0 | 3.0 | 0.00 | 0.00 | 0.00 | 77 | 1019.6 |
| 20260901161850 | 76 | 168 | 0.0 | 2.0 | 0.00 | 0.00 | 0.00 | 77 | 1019.6 |
| 20260901161352 | 76 | 168 | 0.0 | 2.0 | 0.00 | 0.00 | 0.00 | 77 | 1019.6 |
| 20260901160906 | 76 | 168 | 0.0 | 2.0 | 0.00 | 0.00 | 0.00 | 77 | 1019.7 |
| 20260901160353 | 76 | 168 | 0.0 | 2.0 | 0.00 | 0.00 | 0.00 | 77 | 1019.7 |
| 20260901160134 | 76 | 168 | 0.0 | 2.0 | 0.00 | 0.00 | 0.00 | 78 | 1019.7 |
| 20260901155347 | 76 | 168 | 1.0 | 2.0 | 0.00 | 0.00 | 0.00 | 78 | 1019.7 |
| 20260901154848 | 76 | 168 | 1.0 | 4.0 | 0.00 | 0.00 | 0.00 | 78 | 1019.7 |
| 20260901154347 | 76 | 168 | 2.0 | 4.0 | 0.00 | 0.00 | 0.00 | 78 | 1019.7 |
| 20260901153842 | 76 | 184 | 1.0 | 4.0 | 0.00 | 0.00 | 0.00 | 78 | 1019.8 |
| 20260901153337 | 76 | 189 | 1.0 | 2.0 | 0.00 | 0.00 | 0.00 | 77 | 1019.8 |
| 20260901152834 | 76 | 189 | 1.0 | 3.0 | 0.00 | 0.00 | 0.00 | 77 | 1019.8 |
| 20260901152333 | 76 | 189 | 1.0 | 3.0 | 0.00 | 0.00 | 0.00 | 76 | 1019.8 |
| 20260901151837 | 76 | 189 | 1.0 | 3.0 | 0.00 | 0.00 | 0.00 | 76 | 1019.8 |
| 20260901151339 | 76 | 189 | 1.0 | 3.0 | 0.00 | 0.00 | 0.00 | 76 | 1019.9 |
| 20260901150835 | 76 | 187 | 0.0 | 2.0 | 0.00 | 0.00 | 0.00 | 75 | 1019.9 |
| 20260901150609 | 76 | 187 | 0.0 | 2.0 | 0.00 | 0.00 | 0.00 | 75 | 1020.0 |
| 20260901145835 | 76 | 187 | 1.0 | 7.0 | 0.00 | 0.00 | 0.00 | 74 | 1019.9 |
| 20260901145332 | 76 | 187 | 2.0 | 7.0 | 0.00 | 0.00 | 0.00 | 74 | 1020.0 |
| 20260901144833 | 76 | 145 | 2.0 | 4.0 | 0.00 | 0.00 | 0.00 | 74 | 1020.1 |
| 20260901144334 | 76 | 199 | 2.0 | 5.0 | 0.00 | 0.00 | 0.00 | 74 | 1020.0 |
| 20260901144139 | 76 | 152 | 2.0 | 5.0 | 0.00 | 0.00 | 0.00 | 74 | 1020.1 |
| 20260901143335 | 76 | 166 | 2.0 | 5.0 | 0.00 | 0.00 | 0.00 | 75 | 1020.1 |
| 20260901142833 | 76 | 173 | 2.0 | 5.0 | 0.00 | 0.00 | 0.00 | 75 | 1020.2 |
| 20260901142620 | 77 | 202 | 2.0 | 7.0 | 0.00 | 0.00 | 0.00 | 74 | 1020.2 |
| 20260901141833 | 77 | 110 | 2.0 | 7.0 | 0.00 | 0.00 | 0.00 | 74 | 1020.2 |
| 20260901141332 | 77 | 143 | 3.0 | 8.0 | 0.00 | 0.00 | 0.00 | 74 | 1020.2 |
| 20260901140833 | 77 | 180 | 3.0 | 8.0 | 0.00 | 0.00 | 0.00 | 74 | 1020.2 |
| 20260901140334 | 78 | 110 | 2.0 | 6.0 | 0.00 | 0.00 | 0.00 | 72 | 1020.2 |
| 20260901135835 | 78 | 164 | 3.0 | 9.0 | 0.00 | 0.00 | 0.00 | 72 | 1020.3 |
| 20260901135622 | 78 | 224 | 3.0 | 9.0 | 0.00 | 0.00 | 0.00 | 72 | 1020.3 |
| 20260901134834 | 78 | 166 | 3.0 | 7.0 | 0.00 | 0.00 | 0.00 | 73 | 1020.2 |
| 20260901134334 | 78 | 187 | 3.0 | 8.0 | 0.00 | 0.00 | 0.00 | 72 | 1020.2 |
| 20260901133912 | 78 | 163 | 3.0 | 9.0 | 0.00 | 0.00 | 0.00 | 72 | 1020.2 |
| 20260901133855 | 78 | 116 | 3.0 | 9.0 | 0.00 | 0.00 | 0.00 | 73 | 1020.2 |
| 20260901132835 | 78 | 204 | 2.0 | 7.0 | 0.00 | 0.00 | 0.00 | 73 | 1020.1 |
| 20260901132333 | 78 | 169 | 2.0 | 7.0 | 0.00 | 0.00 | 0.00 | 73 | 1020.2 |
| 20260901131833 | 78 | 178 | 3.0 | 7.0 | 0.00 | 0.00 | 0.00 | 73 | 1020.2 |
| 20260901131332 | 78 | 183 | 3.0 | 6.0 | 0.00 | 0.00 | 0.00 | 73 | 1020.2 |
| 20260901130835 | 78 | 177 | 3.0 | 8.0 | 0.00 | 0.00 | 0.00 | 73 | 1020.3 |
| 20260901130336 | 78 | 157 | 3.0 | 10.0 | 0.00 | 0.00 | 0.00 | 73 | 1020.2 |
| 20260901125836 | 78 | 152 | 2.0 | 10.0 | 0.00 | 0.00 | 0.00 | 71 | 1020.3 |
| 20260901125334 | 78 | 204 | 3.0 | 10.0 | 0.00 | 0.00 | 0.00 | 73 | 1020.3 |
| 20260901124835 | 78 | 250 | 4.0 | 10.0 | 0.00 | 0.00 | 0.00 | 72 | 1020.3 |
| 20260901124335 | 78 | 126 | 4.0 | 10.0 | 0.00 | 0.00 | 0.00 | 73 | 1020.3 |
| 20260901123833 | 78 | 141 | 4.0 | 12.0 | 0.00 | 0.00 | 0.00 | 73 | 1020.2 |
| 20260901123335 | 78 | 90 | 4.0 | 12.0 | 0.00 | 0.00 | 0.00 | 74 | 1020.2 |
| 20260901122834 | 78 | 104 | 4.0 | 10.0 | 0.00 | 0.00 | 0.00 | 74 | 1020.2 |
| 20260901122334 | 78 | 56 | 4.0 | 10.0 | 0.00 | 0.00 | 0.00 | 74 | 1020.3 |
| 20260901122118 | 78 | 162 | 4.0 | 9.0 | 0.00 | 0.00 | 0.00 | 75 | 1020.2 |